カタログに戻る

ETRSS-1

運用中科学SSO
NORAD 44880·PAYLOAD·🇪🇹 Ethiopia
この衛星名は、まだ公式ソースで確認されていません。

打ち上げ Dec 20, 2019 から Taiyuan Satellite Launch Center

Loading…

次のパス (今後24時間)

TLE

最新Source: Space-Track

元期: Sep 14, 2026, 14:02 UTC

1 44880U 19093B   26257.58537554  .00002491  00000-0  22542-3 0  9994
2 44880  97.7786 341.3222 0012774 112.9908 247.2662 14.96274499365422

AllMySatでETRSS-1をリアルタイム追跡

Download on the App Store